Date String (YYYY-MM-DD hh:mm:ss) UTC,Instrument flags,Ambient pressure (hPa),Sample flow (lpm),Bypass flow (lpm),Sample temperature (°C),Ambient temperature (°C),ASC tube jacket temperature (°C),LED temperature (°C),Box temperature (°C),Sample RH (%),Span deviation,Mass concentration (μg/m³),Mass concentration (μg/m³),Mass concentration (μg/m³)
DateTimeUTC,F1_M11,P_M11,Q1_M11,Q2_M11,T1_M11,T2_M11,T3_M11,T4_M11,T5_M11,U1_M11,ZSPAN_M11,X2_M11,X0_M11,X1_M11
2022-02-11 14:00:00,,0826.4,4.99,0.00,21.3,21.0,00.0,30.3,22.9,15.8,0000.0,0001.57,0004.42,0001.23
2022-02-11 14:01:00,,0826.3,5.00,0.00,21.3,20.8,00.0,30.3,22.9,15.8,0000.0,0001.56,0004.38,0001.23
2022-02-11 14:02:00,,0826.3,5.00,0.00,21.2,20.6,00.0,30.3,22.8,15.9,0000.0,0001.55,0003.60,0001.23
2022-02-11 14:03:00,,0826.3,5.00,0.00,21.2,20.5,00.0,30.3,22.7,16.0,0000.0,0001.56,0002.56,0001.23
2022-02-11 14:04:00,,0826.3,5.01,0.00,21.1,20.5,00.0,30.3,22.6,16.0,0000.0,0001.56,0003.10,0001.23
2022-02-11 14:05:00,,0826.4,5.00,0.00,21.0,20.3,00.0,30.3,22.6,16.1,0000.0,0001.57,0004.34,0001.23
2022-02-11 14:06:00,,0826.3,5.00,0.00,21.0,20.2,00.0,30.2,22.5,16.1,0000.0,0001.54,0004.46,0001.23
2022-02-11 14:07:00,,0826.3,5.00,0.00,20.9,20.1,00.0,30.2,22.4,16.1,0000.0,0001.52,0004.35,0001.23
2022-02-11 14:08:00,,0826.3,5.00,0.00,20.9,20.0,00.0,30.2,22.3,16.2,0000.0,0001.53,0004.42,0001.22
2022-02-11 14:09:00,,0826.4,5.00,0.00,20.8,20.0,00.0,30.1,22.3,16.3,0000.0,0001.58,0004.58,0001.20
2022-02-11 14:10:00,,0826.5,5.00,0.00,20.9,21.0,00.0,30.1,22.6,16.2,0000.0,0001.57,0004.89,0001.19
2022-02-11 14:11:00,,0826.5,5.00,0.00,21.1,22.1,00.0,30.2,23.1,16.0,0000.0,0001.59,0005.37,0001.19
2022-02-11 14:12:00,,0826.6,5.00,0.00,21.3,22.4,00.0,30.2,23.3,15.9,0000.0,0001.59,0005.45,0001.17
2022-02-11 14:13:00,,0826.6,5.01,0.00,21.3,22.1,00.0,30.3,23.2,15.8,0000.0,0001.58,0005.44,0001.17
2022-02-11 14:14:00,,0826.6,5.01,0.00,21.3,21.7,00.0,30.3,23.0,15.9,0000.0,0001.55,0005.46,0001.17
2022-02-11 14:15:00,,0826.5,4.99,0.00,21.3,21.4,00.0,30.3,22.9,15.9,0000.0,0001.56,0005.60,0001.18
2022-02-11 14:16:00,,0826.5,4.99,0.00,21.2,21.1,00.0,30.3,22.8,15.9,0000.0,0001.56,0004.28,0001.18
2022-02-11 14:17:00,,0826.5,5.02,0.00,21.2,20.9,00.0,30.2,22.7,16.0,0000.0,0001.59,0004.19,0001.19
2022-02-11 14:18:00,,0826.5,4.99,0.00,21.1,20.7,00.0,30.2,22.6,16.0,0000.0,0001.58,0004.29,0001.19
2022-02-11 14:19:00,,0826.5,5.00,0.00,21.0,20.5,00.0,30.2,22.5,16.1,0000.0,0001.57,0004.25,0001.18
2022-02-11 14:20:00,,0826.6,5.01,0.00,21.0,20.3,00.0,30.2,22.5,16.2,0000.0,0001.52,0004.22,0001.19
2022-02-11 14:21:00,,0826.5,4.98,0.00,20.9,20.3,00.0,30.1,22.5,16.2,0000.0,0001.56,0004.67,0001.21
2022-02-11 14:22:00,,0826.6,5.01,0.00,20.9,20.1,00.0,30.1,22.4,16.3,0000.0,0001.59,0004.31,0001.22
2022-02-11 14:23:00,,0826.6,5.00,0.00,20.8,20.0,00.0,30.1,22.3,16.2,0000.0,0001.62,0004.29,0001.24
2022-02-11 14:24:00,,0826.7,4.99,0.00,20.8,20.1,00.0,30.1,22.3,16.3,0000.0,0001.63,0004.32,0001.24
2022-02-11 14:25:00,,0826.6,5.01,0.00,20.9,21.1,00.0,30.1,22.7,16.2,0000.0,0001.64,0005.53,0001.25
2022-02-11 14:26:00,,0826.6,5.00,0.00,21.1,22.2,00.0,30.2,23.1,16.0,0000.0,0001.65,0005.08,0001.26
2022-02-11 14:27:00,,0826.7,5.00,0.00,21.3,22.5,00.0,30.2,23.3,15.9,0000.0,0001.65,0004.99,0001.26
2022-02-11 14:28:00,,0826.7,5.01,0.00,21.3,22.1,00.0,30.2,23.1,15.8,0000.0,0001.66,0004.94,0001.26
2022-02-11 14:29:00,,0826.7,5.00,0.00,21.3,21.7,00.0,30.2,23.0,15.9,0000.0,0001.70,0005.86,0001.27
2022-02-11 14:30:00,,0826.7,4.99,0.00,21.2,21.3,00.0,30.2,22.9,15.9,0000.0,0001.74,0006.22,0001.27
2022-02-11 14:31:00,,0826.7,4.99,0.00,21.2,21.0,00.0,30.2,22.7,15.9,0000.0,0001.75,0006.24,0001.26
2022-02-11 14:32:00,,0826.7,5.02,0.00,21.1,20.8,00.0,30.2,22.6,15.9,0000.0,0001.74,0005.56,0001.25
2022-02-11 14:33:00,,0826.7,4.99,0.00,21.0,20.5,00.0,30.2,22.5,16.0,0000.0,0001.71,0005.43,0001.24
2022-02-11 14:34:00,,0826.7,5.01,0.00,21.0,20.3,00.0,30.1,22.5,16.0,0000.0,0001.69,0005.48,0001.23
2022-02-11 14:35:00,,0826.7,4.99,0.00,20.9,20.1,00.0,30.1,22.4,16.0,0000.0,0001.67,0005.56,0001.21
2022-02-11 14:36:00,,0826.6,5.01,0.00,20.8,19.9,00.0,30.1,22.3,16.1,0000.0,0001.64,0004.56,0001.20
2022-02-11 14:37:00,,0826.6,4.99,0.00,20.8,19.9,00.0,30.1,22.2,16.1,0000.0,0001.59,0004.01,0001.17
2022-02-11 14:38:00,,0826.7,5.01,0.00,20.8,20.2,00.0,30.0,22.3,16.2,0000.0,0001.61,0004.25,0001.15
2022-02-11 14:39:00,,0826.8,5.00,0.00,20.9,21.3,00.0,30.1,22.7,16.1,0000.0,0001.59,0004.26,0001.14
2022-02-11 14:40:00,,0826.8,5.00,0.00,21.1,22.3,00.0,30.1,23.1,16.0,0000.0,0001.58,0003.74,0001.11
2022-02-11 14:41:00,,0826.8,5.00,0.00,21.3,22.5,00.0,30.2,23.3,15.8,0000.0,0001.56,0003.45,0001.09
2022-02-11 14:42:00,,0826.8,5.01,0.00,21.3,22.0,00.0,30.2,23.2,15.7,0000.0,0001.53,0003.39,0001.08
2022-02-11 14:43:00,,0826.8,5.01,0.00,21.3,21.7,00.0,30.2,23.1,15.7,0000.0,0001.46,0003.20,0001.06
2022-02-11 14:44:00,,0826.8,4.99,0.00,21.2,21.3,00.0,30.2,22.9,15.7,0000.0,0001.42,0003.42,0001.04
2022-02-11 14:45:00,,0826.8,4.99,0.00,21.2,20.9,00.0,30.2,22.8,15.7,0000.0,0001.37,0003.23,0001.02
2022-02-11 14:46:00,,0826.8,5.01,0.00,21.1,20.7,00.0,30.2,22.6,15.7,0000.0,0001.37,0003.14,0001.01
2022-02-11 14:47:00,,0826.9,4.98,0.00,21.0,20.3,00.0,30.2,22.5,15.8,0000.0,0001.39,0003.49,0000.99
2022-02-11 14:48:00,,0826.9,5.00,0.00,20.9,20.1,00.0,30.1,22.4,15.9,0000.0,0001.43,0003.54,0000.99
2022-02-11 14:49:00,,0826.8,5.00,0.00,20.9,20.0,00.0,30.1,22.3,16.0,0000.0,0001.39,0003.79,0000.99
2022-02-11 14:50:00,,0826.9,5.00,0.00,20.9,20.0,00.0,30.1,22.3,16.0,0000.0,0001.45,0004.45,0000.99
2022-02-11 14:51:00,,0826.8,5.00,0.00,20.8,20.0,00.0,30.0,22.3,16.0,0000.0,0001.45,0004.75,0000.99
2022-02-11 14:52:00,,0826.8,5.01,0.00,20.8,19.9,00.0,30.0,22.2,16.1,0000.0,0001.42,0005.01,0000.99
2022-02-11 14:53:00,,0826.9,4.98,0.00,20.8,20.2,00.0,30.0,22.3,16.0,0000.0,0001.46,0005.10,0000.99
2022-02-11 14:54:00,,0827.0,5.01,0.00,20.9,21.3,00.0,30.1,22.7,15.8,0000.0,0001.53,0005.48,0001.00
2022-02-11 14:55:00,,0826.8,5.00,0.00,21.1,22.3,00.0,30.1,23.1,15.6,0000.0,0001.54,0005.33,0000.99
2022-02-11 14:56:00,,0826.8,5.00,0.00,21.3,22.4,00.0,30.1,23.2,15.5,0000.0,0001.55,0005.51,0000.99
2022-02-11 14:57:00,,0826.8,4.99,0.00,21.3,22.1,00.0,30.1,23.1,15.4,0000.0,0001.55,0005.82,0000.99
2022-02-11 14:58:00,,0826.8,5.00,0.00,21.3,21.7,00.0,30.2,23.0,15.5,0000.0,0001.49,0005.79,0000.98
2022-02-11 14:59:00,,0826.8,5.00,0.00,21.2,21.3,00.0,30.2,22.9,15.6,0000.0,0001.49,0006.04,0000.98
